Regional Weather Roundup
Issued by NWS

Home | Current Version | Previous Version | Graphics & Text | Print | Product List | Glossary On
Versions: 1 2 3 4 5 6 7 8 9 10 11 12 13 14 15 16 17 18 19 20 21 22 23 24 25 26 27 28 29 30 31 32 33 34 35 36 37 38 39 40 41 42 43 44 45 46 47 48 49 50
000
ASUS43 KFSD 191810
RWRSD

WEATHER ROUNDUP FOR SOUTH DAKOTA
NATIONAL WEATHER SERVICE SIOUX FALLS SD
100 PM CDT SAT APR 19 2014

NOTE: "FAIR" INDICATES FEW OR NO CLOUDS BELOW 12,000 FEET WITH NO
SIGNIFICANT WEATHER AND/OR OBSTRUCTIONS TO VISIBILITY.


SDZ001>005-009-010-012>017-191900-
NORTHWEST AND NORTH CENTRAL SOUTH DAKOTA

CITY           SKY/WX    TMP DP  RH WIND       PRES   REMARKS
BUFFALO          N/A     58  23  26 W21G28    29.94S
FAITH            N/A     60  22  23 W20G25    29.99S
MOBRIDGE       MOSUNNY   63  24  22 W17G26    29.94S
$$

SDZ012>016-024>037-041>051-057-063-072>074-191900-
SOUTHWEST AND SOUTH CENTRAL SOUTH DAKOTA

CITY           SKY/WX    TMP DP  RH WIND       PRES   REMARKS
RAPID CTY ARPT MOSUNNY   58  18  21 VRB3      30.04R
PIERRE         MOSUNNY   60  24  25 NW9       30.01S
CUSTER         MOSUNNY   50  31  48 VRB7      30.05R
ELLSWORTH AFB  MOSUNNY   58  19  22 VRB7      30.03S
PHILIP         MOSUNNY   63  20  19 VRB6      30.03S
PINE RIDGE     MOSUNNY   58  22  24 NE7       30.06S
SPEARFISH      FAIR      55  19  24 NW9       30.03F
WINNER         FAIR      62  25  24 N8        30.05R
$$

SDZ004>011-016>023-039-040-191900-
NORTHEAST SOUTH DAKOTA

CITY           SKY/WX    TMP DP  RH WIND       PRES   REMARKS
ABERDEEN       MOSUNNY   65  22  19 NW17G23   29.97S
WATERTOWN      PTSUNNY   59  32  36 NW14      29.98R
SISSETON         N/A     65  29  25 NW13      29.94S
$$

SDZ017-020-022-023-036>040-048>070-191900-
SOUTHEAST SOUTH DAKOTA

CITY           SKY/WX    TMP DP  RH WIND       PRES   REMARKS
SIOUX FALLS    PTSUNNY   68  44  42 NW16      29.98R
HURON          PTSUNNY   65  25  22 NW10      30.00S
CHAMBERLAIN      N/A     62  27  26 N8        30.04R
MITCHELL       PTSUNNY   62  35  36 NW12      30.03R
YANKTON        MOSUNNY   68  45  42 NE6       29.99F
$$

ABBREVIATIONS USED IN REMARKS
   TC - TEMPERATURE IN CELSIUS
  WCI - WIND CHILL INDEX
   HX - HEAT INDEX
  VSB - VISIBILITY




USA.gov is the U.S. government's official web portal to all federal, state and local government web resources and services.